Content
SEND FEEDBACK

Daily
Averages
Monthly
Summary
United States of America

OKOBOJI, IOWA


Home > North America > United States > Iowa
Elevation: 1440 feet     Latitude: 43 22N     Longitude: 095 10W

WEATHER
 
SELECT A DAY
Number of Records: 193,220;   Date Range: 7/9/96 - 9/30/14
 
SHARE

PRINT THIS DATA

[ ← Previous Day ]
WEATHER ALMANAC - JANUARY 31, 2013
[ Next Day → ]
[ °C ]   °F
Weather ElementAverageHighLow
Temperature-0.1 °F5 °F (2:53 pm)-7.1 °F (11:53 pm)
Dewpoint-9.5 °F-2.9 °F (12:53 am)-15 °F (10:53 pm)
Humidity64.9 %76 % (12:53 am)55 % (12:53 pm)
Barometer30.16 in30.43 in (9:53 pm)29.93 in (12:53 am)
Wind Speed20.2 mph28.8 mph (11:04 am)
Wind Gust36.8 mph (11:53 am)
Weather ElementAverage
Visibility9.6 mi
Wind DirectionWNW (306.8 °)

Weather ElementTotal
Precipitation---
Heating Degree Days66.1 (Base 65)
Averaged from 28 records on January 31, 2013
WEATHER CONDITIONS BREAKOUT
WIND DIRECTION BREAKOUT
WEATHER BY HOUR - JANUARY 31, 2013
[ °C ]   °F
Local TimeTemperatureDewpointHumidityBarometerVisibilityWind DirectionWind SpeedGust SpeedPrecipitationEventsConditions
12:53 AM3.0 °F-2.9 °F76 %29.93 in10.0 miWNW (300°)17.3 mphClear
1:53 AM1.9 °F-5.1 °F72 %29.94 in10.0 miWNW (300°)18.4 mphClear
2:53 AM1.0 °F-7.1 °F69 %29.96 in10.0 miWNW (300°)18.4 mph26.5 mphClear
3:53 AM0.0 °F-8.0 °F69 %29.98 in10.0 miWNW (300°)17.3 mph25.3 mphClear
5:08 AM-2.2 °F-9.4 °F71 %29.93 in10.0 miWNW (300°)18.4 mph25.3 mphMostly Cloudy
5:15 AM-0.4 °F-9.4 °F66 %29.93 in10.0 miWNW (300°)18.4 mphMostly Cloudy
5:23 AM-2.2 °F-9.4 °F71 %29.93 in10.0 miWNW (300°)20.7 mph26.5 mphMostly Cloudy
5:53 AM-0.9 °F-8.0 °F72 %30.02 in10.0 miWNW (300°)17.3 mph25.3 mphOvercast
6:53 AM-0.9 °F-9.0 °F69 %30.06 in10.0 miNW (320°)19.6 mph29.9 mphOvercast
7:53 AM-2.0 °F-9.0 °F72 %30.11 in10.0 miNW (310°)20.7 mph28.8 mphOvercast
8:29 AM-0.4 °F-9.4 °F66 %30.02 in4.0 miNW (310°)21.9 mph29.9 mph0.00 inSnowLight Snow
8:51 AM-0.4 °F-9.4 °F66 %30.04 in7.0 miNW (310°)18.4 mph28.8 mph0.00 inOvercast
8:53 AM-0.9 °F-9.0 °F69 %30.14 in7.0 miNW (310°)18.4 mph28.8 mph0.00 inOvercast
9:53 AM0.0 °F-9.9 °F63 %30.17 in10.0 miNW (310°)21.9 mph33.4 mph0.00 inScattered Clouds
10:53 AM1.0 °F-9.9 °F60 %30.20 in10.0 miNW (310°)25.3 mph34.5 mphScattered Clouds
11:04 AM1.4 °F-9.4 °F61 %30.11 in10.0 miNW (310°)28.8 mph35.7 mphMostly Cloudy
11:53 AM1.9 °F-9.9 °F58 %30.22 in10.0 miWNW (300°)24.2 mph36.8 mphMostly Cloudy
12:53 PM3.0 °F-9.9 °F55 %30.25 in10.0 miNW (310°)26.5 mph34.5 mphOvercast
1:53 PM3.0 °F-9.0 °F57 %30.27 in10.0 miNW (310°)24.2 mph32.2 mphMostly Cloudy
2:53 PM5.0 °F-8.0 °F55 %30.28 in10.0 miNW (320°)23.0 mph34.5 mphMostly Cloudy
3:53 PM3.0 °F-9.0 °F57 %30.32 in10.0 miNW (310°)26.5 mph34.5 mphMostly Cloudy
4:22 PM3.2 °F-9.4 °F56 %30.21 in10.0 miNW (310°)19.6 mph32.2 mphScattered Clouds
4:53 PM1.9 °F-9.9 °F58 %30.33 in10.0 miNW (310°)20.7 mph31.1 mphClear
5:53 PM-0.9 °F-11.0 °F62 %30.35 in10.0 miNW (310°)18.4 mph28.8 mphClear
6:53 PM-2.0 °F-11.0 °F66 %30.38 in10.0 miNW (310°)17.3 mph26.5 mphClear
9:53 PM-6.0 °F-14.1 °F68 %30.43 in10.0 miWNW (300°)15.0 mph21.9 mphClear
10:53 PM-6.0 °F-15.0 °F65 %30.43 in10.0 miNW (310°)17.3 mphClear
11:53 PM-7.1 °F-15.0 °F68 %30.43 in10.0 miWNW (300°)11.5 mphClear
Hourly data recorded from KSPW, located miles away from Okoboji, Iowa







STORIES FROM OUR PARTNERS